Location: Dos Palmas
(32.4468°N, 116.8732°W)
Time: 00:13:22
(UTC+00:00)

FALCON 9 DEB - Pass Details

Date: 20 June 2021
Orbit: 422 x 432 km, 53.0° (Epoch: 01 August)

Event Time Altitude Azimuth Distance (km) Brightness Sun altitude
Rises 10:55:54 0° 316° (NW) 2,379 6.9 -18.5°
Reaches altitude 10° 10:58:00 10° 317° (NW) 1,510 5.9 -18.2°
Maximum altitude 11:01:24 88° 50° (NE) 426 3.0 -17.7°
Drops below altitude 10° 11:04:45 10° 137° (SE) 1,497 5.8 -17.2°
Sets 11:06:50 0° 137° (SE) 2,357 6.9 -16.9°
